Regional Weather Roundup
Issued by NWS Little Rock, AR

Home | Current Version | Previous Version | Text Only | Print | Product List | Glossary On
Versions: 1 2 3 4 5 6 7 8 9 10 11 12 13 14 15 16 17 18 19 20 21 22 23 24 25 26 27 28 29 30 31 32
000
ASUS44 KLZK 221212
RWRLZK

WEATHER ROUNDUP FOR ARKANSAS
NATIONAL WEATHER SERVICE LITTLE ROCK AR
600 AM CST WED FEB 22 2017

NOTE: "FAIR" INDICATES FEW OR NO CLOUDS BELOW 12,000 FEET WITH NO
SIGNIFICANT WEATHER AND/OR OBSTRUCTIONS TO VISIBILITY.

ARZ001-003-010-029-221300-
NORTHWEST ARKANSAS

CITY           SKY/WX    TMP DP  RH WIND       PRES   REMARKS
FAYETTEVILLE   CLOUDY    53  53 100 S5        29.89F
6HR MIN TEMP:  48; 6HR MAX TEMP:  54;

FORT SMITH     FOG       50  49  96 CALM      29.89F VSB 1/4
6HR MIN TEMP:  48; 6HR MAX TEMP:  56;

HARRISON       CLOUDY    55  54  96 CALM      29.91R
6HR MIN TEMP:  55; 6HR MAX TEMP:  57;

BENTONVILLE    CLOUDY    55  54  94 SE8       29.90F
6HR MIN TEMP:  48; 6HR MAX TEMP:  55;

ROGERS         CLOUDY    55  54  96 S8        29.90F
6HR MIN TEMP:  51; 6HR MAX TEMP:  58;

SILOAM SPGS    CLOUDY    52  50  93 SE7       29.89S VSB 1/4
6HR MIN TEMP:  45; 6HR MAX TEMP:  54;

HIGHFILL       CLOUDY    54  54 100 S9        29.88F FOG
6HR MIN TEMP:  46; 6HR MAX TEMP:  54;

SPRINGDALE     CLOUDY    55  55 100 SE3       29.91
$$

ARZ004-005-016-221300-
NORTH CENTRAL ARKANSAS

CITY           SKY/WX    TMP DP  RH WIND       PRES   REMARKS
BATESVILLE     CLOUDY    57  55  94 NW3       29.90S VSB 1
6HR MIN TEMP:  57; 6HR MAX TEMP:  57;

FLIPPIN        CLOUDY    54  48  82 CALM      29.89R VSB 3/4
6HR MIN TEMP:  52; 6HR MAX TEMP:  57;

MTN HOME       FOG       54  54 100 CALM      29.90R VSB 1/4
6HR MIN TEMP:  52; 6HR MAX TEMP:  55;

$$

ARZ040-041-221300-
WEST CENTRAL ARKANSAS

CITY           SKY/WX    TMP DP  RH WIND       PRES   REMARKS
MENA           CLEAR     52  52 100 CALM      29.90S
MOUNT IDA      CLOUDY    57  56  96 CALM      29.88R
6HR MIN TEMP:  56; 6HR MAX TEMP:  59;

$$

ARZ009-017-025-026-028-221300-
NORTHEAST ARKANSAS

CITY           SKY/WX    TMP DP  RH WIND       PRES   REMARKS
CORNING        FOG       55  55 100 CALM      29.89S VSB 3/4
JONESBORO      CLOUDY    59  58  96 E5        29.88F FOG
6HR MIN TEMP:  59; 6HR MAX TEMP:  60; 6HR PCP:  0.01;

NEWPORT        FOG       55  55 100 NE3       29.88F VSB 1/4
6HR MIN TEMP:  55; 6HR MAX TEMP:  59;

WALNUT RIDGE     N/A     55  54  94 NE5       29.88F VSB 1/4
6HR MIN TEMP:  55; 6HR MAX TEMP:  59;

BLYTHEVILLE    FOG       55  55 100 CALM      29.89F VSB 1/4
6HR MIN TEMP:  56; 6HR MAX TEMP:  60;

$$

ARZ022-023-033-042-044-221300-
CENTRAL ARKANSAS

CITY           SKY/WX    TMP DP  RH WIND       PRES   REMARKS
LITTLE ROCK    FOG       56  56 100 NW5       29.89R VSB 1
6HR MIN TEMP:  53; 6HR MAX TEMP:  57;

N LITTLE ROCK    N/A     56  55  98 CALM      29.89F
6HR MIN TEMP:  55; 6HR MAX TEMP:  57;

JACKSONVILLE   FOG       56  56 100 CALM      29.88S VSB 1/2
6HR MIN TEMP:  53; 6HR MAX TEMP:  57;

SEARCY         FOG       57  57 100 N6        29.90S VSB 1
6HR MIN TEMP:  54; 6HR MAX TEMP:  60; 6HR PCP: TRACE;

HOT SPRINGS    CLOUDY    58  57  97 CALM      29.90R
6HR MIN TEMP:  56; 6HR MAX TEMP:  60;

RUSSELLVILLE   FOG       51  50  96 CALM      29.90R VSB 1/2
6HR MIN TEMP:  49; 6HR MAX TEMP:  58;

CLINTON        CLOUDY    55  55 100 CALM      29.90
$$

ARZ036-221300-
EAST ARKANSAS

CITY           SKY/WX    TMP DP  RH WIND       PRES   REMARKS
WEST MEMPHIS   CLOUDY    58  58 100 NE8       29.87F
6HR MIN TEMP:  58; 6HR MAX TEMP:  59; 6HR PCP: TRACE;

$$

ARZ050-053-066-070-073-221300-
SOUTHWEST ARKANSAS

CITY           SKY/WX    TMP DP  RH WIND       PRES   REMARKS
ARKADELPHIA      N/A    N/A N/A N/A MISG        N/A
CAMDEN         CLOUDY    57  55  94 N5        29.89S
TEXARKANA      CLEAR     52  52 100 E3        29.89S
6HR MIN TEMP:  50; 6HR MAX TEMP:  60;

EL DORADO      CLOUDY    58  57  97 CALM      29.89S
6HR MIN TEMP:  57; 6HR MAX TEMP:  59;

DE QUEEN       FOG       46  46 100 CALM      29.88S VSB 3/4
6HR MIN TEMP:  45; 6HR MAX TEMP:  53;

$$

ARZ056-057-069-221300-
SOUTHEAST ARKANSAS

CITY           SKY/WX    TMP DP  RH WIND       PRES   REMARKS
PINE BLUFF     FOG       56  56 100 N7        29.88S VSB 1/2
6HR MIN TEMP:  56; 6HR MAX TEMP:  58;

STUTTGART      CLOUDY    55  48  76 CALM      29.88F VSB 1/4
6HR MIN TEMP:  54; 6HR MAX TEMP:  57; 6HR PCP:  0.01;

MONTICELLO     FOG       56  55  97 VRB3      29.87S VSB 1/2
6HR MIN TEMP:  56; 6HR MAX TEMP:  58;


$$






USA.gov is the U.S. government's official web portal to all federal, state and local government web resources and services.